This demonstration page uses our WeatherBlox Daily Observations layout. Learn more.

Left ArrowRight Arrow

34.74481, -87.66753

Hourly Observations for October 3, 2021

Temp ( °F °C ) Dew Point ( °F °C ) Humidity (%) Winds ( mph kmh ) Pressure ( in mb ) Visibility ( mi km ) Precip ( " mm )
12:53 am 00:53 Cloudy 74 23.3 70 21.1 88 88 SSE 5 7 30.02 1017 7 11 0.00 0.00
1:53 am 01:53 Cloudy 74 23.3 69 20.6 85 85 SSE 8 13 30.01 1016 10 16 0.00 0.00
2:53 am 02:53 Cloudy 73 22.8 68 20 84 84 S 6 9 30.01 1016 10 16 0.00 0.00
3:06 am 03:06 Cloudy 73 22.8 68 20 84 84 S 6 9 30.00 1016 10 16 0.00 0.00
3:39 am 03:39 Cloudy 72 22.2 68 20 87 87 SSE 6 9 30.00 1016 10 16 0.00 0.00
3:53 am 03:53 Cloudy 72 22.2 68 20 87 87 SSE 6 9 29.99 1016 10 16 0.00 0.00
4:53 am 04:53 Cloudy 72 22.2 67 19.4 84 84 S 5 7 30.00 1016 10 16 0.00 0.00
5:53 am 05:53 Cloudy 72 22.2 67 19.4 84 84 S 6 9 30.00 1016 10 16 0.00 0.00
6:53 am 06:53 Cloudy 71 21.7 67 19.4 87 87 S 7 11 30.00 1016 10 16 0.00 0.00
7:40 am 07:40 Cloudy 72 22.2 67 19.4 84 84 SSW 8 13 30.00 1016 10 16 0.00 0.00
7:53 am 07:53 Cloudy with Light Rain 72 22.2 67 19.4 84 84 SSW 8 13 30.01 1016 4 6 0.02 0.51
8:02 am 08:02 Cloudy with Light Rain 72 22.2 67 19.4 84 84 SSW 6 9 30.00 1016 3 5 0.01 0.25
8:17 am 08:17 Cloudy 72 22.2 67 19.4 84 84 S 6 9 30.00 1016 10 16 0.01 0.25
8:53 am 08:53 Cloudy with Light Rain 72 22.2 68 20 87 87 S 12 19 30.00 1016 7 11 0.04 1.02
9:05 am 09:05 Cloudy with Rain 72 22.2 68 20 87 87 S 12 19 29.99 1016 4 6 0.02 0.51
9:41 am 09:41 Cloudy 73 22.8 68 20 84 84 S 10 17 30.00 1016 10 16 0.03 0.76
9:53 am 09:53 Cloudy 73 22.8 68 20 84 84 SSW 9 15 30.00 1016 10 16 0.03 0.76
10:32 am 10:32 Cloudy 73 22.8 68 20 84 84 S 8 13 30.00 1016 10 16 0.00 0.00
10:53 am 10:53 Cloudy 73 22.8 69 20.6 87 87 S 7 11 30.00 1016 10 16 0.00 0.00
11:28 am 11:28 Cloudy 74 23.3 69 20.6 85 85 S 8 13 29.99 1016 10 16 0.00 0.00
11:53 am 11:53 Cloudy 74 23.3 69 20.6 85 85 SSW 7 11 29.99 1016 8 13 0.00 0.00
12:14 pm 12:14 Cloudy with Mist and Fog 74 23.3 70 21.1 88 88 SW 9 15 29.99 1016 4 6 0.00 0.00
12:29 pm 12:29 Cloudy 75 23.9 70 21.1 84 84 SW 10 17 29.98 1015 9 14 0.00 0.00
12:42 pm 12:42 Cloudy 75 23.9 70 21.1 84 84 SSW 9 15 29.98 1015 9 14 0.00 0.00
12:53 pm 12:53 Cloudy 75 23.9 69 20.6 82 82 SSW 12 19 29.98 1015 10 16 0.00 0.00
1:04 pm 13:04 Cloudy 75 23.9 69 20.6 82 82 SW 10 17 29.97 1015 10 16 0.00 0.00
1:11 pm 13:11 Cloudy 75 23.9 69 20.6 82 82 SW 8 13 29.97 1015 10 16 0.00 0.00
1:20 pm 13:20 Cloudy 76 24.4 70 21.1 82 82 SSW 8 13 29.97 1015 10 16 0.00 0.00
1:53 pm 13:53 Cloudy 77 25 69 20.6 77 77 SW 10 17 29.95 1014 10 16 0.00 0.00
2:07 pm 14:07 Cloudy 78 25.6 69 20.6 74 74 SSW 10 17 29.95 1014 10 16 0.00 0.00
2:41 pm 14:41 Mostly Cloudy 77 25 69 20.6 77 77 SSW 6 9 29.93 1013 10 16 0.00 0.00
2:53 pm 14:53 Partly Cloudy 77 25 69 20.6 77 77 SW 6 9 29.93 1013 10 16 0.00 0.00
3:31 pm 15:31 Cloudy 77 25 69 20.6 77 77 W 5 7 29.93 1013 10 16 0.00 0.00
3:53 pm 15:53 Mostly Cloudy 76 24.4 70 21.1 82 82 Calm 29.92 1013 10 16 0.00 0.00
4:53 pm 16:53 Mostly Sunny 77 25 69 20.6 77 77 W 6 9 29.91 1013 10 16 0.00 0.00
7:30 pm 19:30 Cloudy 72 22 66 19 83 83 S 3 6 29.93 1014 10 16 0.00 0.00
7:35 pm 19:35 Cloudy 72 22 66 19 83 83 S 3 6 29.93 1014 10 16 0.00 0.00
7:55 pm 19:55 Cloudy 72 22 66 19 83 83 Calm 29.93 1014 10 16 0.00 0.00
8:53 pm 20:53 Mostly Cloudy 70 21.1 65 18.3 84 84 Calm 29.94 1014 10 16 0.00 0.00
9:53 pm 21:53 Partly Cloudy 69 20.6 65 18.3 87 87 Calm 29.96 1015 10 16 0.00 0.00
10:53 pm 22:53 Partly Cloudy 69 20.6 65 18.3 87 87 SE 3 6 29.96 1015 10 16 0.00 0.00
11:53 pm 23:53 Clear 68 20 64 17.8 87 87 S 3 6 29.95 1014 10 16 0.00 0.00

Powered by AerisWeather